Miscellaneous Local Product
Issued by NWS Hastings, NE

Home | Current Version | Previous Version | Graphics & Text | Print | Product List | Glossary On
Versions: 1 2 3 4 5 6 7 8 9 10 11 12 13 14 15 16 17 18 19 20 21 22 23 24 25 26 27 28 29 30 31 32 33 34 35 36 37 38 39 40 41 42 43 44 45 46 47 48 49 50
000
AXUS43 KGID 280302
MISGRI

GID CWA HOURLY WEATHER ROUNDUP
NATIONAL WEATHER SERVICE HASTINGS NE
1000 PM CDT THU JUL 27 2017

NOTE: "FAIR" INDICATES FEW OR NO CLOUDS BELOW 12,000 FEET WITH NO
SIGNIFICANT WEATHER AND/OR OBSTRUCTIONS TO VISIBILITY.

...SOUTH CENTRAL NEBRASKA...

CITY           SKY/WX    TMP DP  RH WIND       PRES   REMARKS
GRAND ISLAND   CLEAR     72  66  81 E6        30.07R
HASTINGS       CLEAR     71  63  75 E7        30.08R
KEARNEY        CLEAR     68  65  90 E6        30.07R
ORD            CLOUDY    70  61  73 SE3       30.04F
YORK           CLEAR     68  66  94 NE5       30.05S
AURORA         CLEAR     68  67  95 E3        30.06R
LEXINGTON      CLEAR     72  63  73 SE7       30.07R
HOLDREGE       CLEAR     67  64  87 E5        30.07R
HEBRON         CLEAR     73  65  75 NE3       30.04R

...NEBRASKA PANHANDLE...

CITY           SKY/WX    TMP DP  RH WIND       PRES   REMARKS
CHADRON        NOT AVBL
ALLIANCE       CLOUDY    65  61  87 MISG      30.07S
SCOTTSBLUFF    CLOUDY    70  63  78 E17G25    30.05R
SIDNEY         CLOUDY    68  61  78 N15G25    30.13R THUNDER

...WESTERN AND NORTH CENTRAL NEBRASKA...

CITY           SKY/WX    TMP DP  RH WIND       PRES   REMARKS
VALENTINE      CLOUDY    74  57  55 E13       30.05F
AINSWORTH      PTCLDY    69  62  79 SE5       30.08S
ONEILL         CLOUDY    73  64  75 E5        30.07S
BROKEN BOW     CLEAR     69  61  75 E6        30.07R
IMPERIAL       CLEAR     75  58  55 SE10      30.05S
NORTH PLATTE   CLEAR     69  58  67 SE8       30.07R
MCCOOK         CLOUDY    73  61  65 E8        30.05S

...EASTERN NEBRASKA...

CITY           SKY/WX    TMP DP  RH WIND       PRES   REMARKS
NORFOLK        PTCLDY    70  62  76 E3        30.04S
SO SIOUX CITY  CLEAR     76  62  62 NE6       30.03R
TEKAMAH        CLEAR     70  66  87 NW6       30.02R
COLUMBUS       CLEAR     69  67  93 CALM      30.04F
ALBION         CLOUDY    70  66  88 CALM      30.06S
OMAHA EPPLEY   PTCLDY    73  66  78 N5        30.01R
OFFUTT AFB     CLEAR     71  64  78 N3        30.00R
MILLARD        CLEAR     78  65  65 CALM      30.01S
LINCOLN        CLEAR     71  65  81 N8        30.03R
NEBRASKA CITY  CLEAR     71  69  91 N5        30.01R
BEATRICE       CLEAR     71  66  85 N3        30.03R
FALLS CITY     PTCLDY    72  67  84 NW5       29.99R

...NORTHERN KANSAS...

CITY           SKY/WX    TMP DP  RH WIND       PRES   REMARKS
GOODLAND       CLOUDY    74  65  73 SE7       30.10R
HILL CITY      CLEAR     75  63  66 NE8       30.05R
NORTON         CLEAR     70  57  64 E6        30.06R
PHILLIPSBURG   CLEAR     73  63  68 NE6       30.05S
SMITH CENTER   CLEAR     68  63  83 NE6       30.05R
HAYS           CLEAR     74  64  71 NE7       30.03R
RUSSELL        CLEAR     75  65  70 NE7       30.01R
CONCORDIA      CLEAR     72  66  81 NE7       30.02R
SALINA         CLEAR     82  67  60 NE10      29.99R
TOPEKA         CLEAR     77  73  87 N6        29.95R



USA.gov is the U.S. government's official web portal to all federal, state and local government web resources and services.